FENGYUN 1C DEB, 30409

Orbit data source: Space-Track

FENGYUN 1C DEB, 30409 is space debris in SSO originally from a launch on Mon, 10 May 1999 UTC launched from the Taiyaun Space Center, China (TSC). Fengyun 1C debris stems from the Chinese weather satellite Fengyun-1C, which was intentionally destroyed by a Chinese anti-satellite missile in 2007. This event dramatically increased the amount of space debris, with thousands of trackable fragments posing hazards to satellites and human spaceflight. The Fengyun 1C debris cloud has become a focal point in discussions about space sustainability and the need for international regulations to prevent the creation of new debris.

Loading next visibility...
Identifier
30409, 1999-025ADY
Orbit
SSO
Country
Flag of CNCN / PRC
Related business
Manufacturer
Unknown
Mission
Spacecraft
Bus & Motor
Unknown
Mass
Unknown
Launch date (UTC)
1999-05-10 (27 years ago)
Launch vehicle
Unknown
Launch site
Taiyaun Space Center, China (TSC)
Object type
Payload
Rocket body
Debris
Shape & HBR
Unknown shape, 0.1 m
Radar Cross Section
Small (<0.1 m²)

Expand to show TLE details & history
Last TLE update: 10 hours ago

TLE from 10 hours ago
0 FENGYUN 1C DEB
1 30409U 99025ADY 26106.43903671  .00000753  00000-0  44223-3 0  9992
2 30409  98.4873  90.5737 0167506  13.5441 137.2611 14.04085568981797
Epoch: 2026-04-16T10:32Z
TLE epoch observation values (Epoch: 2026-04-16T10:32:12.771Z)
Latitude
27.62029°
Longitude
-87.61114°
Altitude
973.283 km
Speed
7.322 km/s
True Right ascension
18h 20m 06s
True Declination
27° 29' 00"
Sunlit
Object was in daylight at epoch
Visualization orbit readout
Latitude
Unknown
Longitude
Unknown
Altitude
Unknown
Speed
Unknown
Apparent Right ascension
Unknown
Apparent Declination
Unknown
Sunlit
N/A
Visualization observer readout
Local Sidereal Time
03:38:07
Azimuth
Unknown
Elevation
Unknown
Doppler factor
Unknown
Orbital elements
Apogee altitude
998.376 km
Perigee altitude
755.325 km
Semi-major axis
7,254.987 km
Eccentricity
0.01675
Inclination
98.4873°
RAAN
90.5737°
Arg. of periapsis
13.5441°
True anomaly
138.54392°
Mean anomaly
137.2611°
Eccentric anomaly
137.90448°
Mean motion
3.51227 °/min
Orbital period
102.5 mins
BSTAR
0.00044223
Loading maneuver chart data...
Computing Atmospheric mass density...
Loading historical data...
Loading historical data...
Loading historical data...
Loading historical data...
Loading historical data...
Loading historical data...
Loading historical data...

Documentation

Showing up to 5 results
|